TimeNZST,TemperatureF,Dew PointF,Humidity,Sea Level PressureIn,VisibilityMPH,Wind Direction,Wind SpeedMPH,Gust SpeedMPH,PrecipitationIn,Events,Conditions,WindDirDegrees,DateUTC
12:00 AM,51.8,44.6,76,29.77,-9999.0,North,4.6,-,N/A,,Clear,360,2013-06-01 12:00:00
1:00 AM,51.8,44.6,76,29.74,-9999.0,NNE,6.9,-,N/A,,Clear,20,2013-06-01 13:00:00
2:00 AM,53.6,44.6,72,29.71,-9999.0,NNE,8.1,-,N/A,,Clear,30,2013-06-01 14:00:00
3:00 AM,55.4,44.6,67,29.68,-9999.0,NNE,8.1,-,N/A,,Clear,20,2013-06-01 15:00:00
4:00 AM,62.6,44.6,52,29.65,-9999.0,NNW,12.7,-,N/A,,Clear,330,2013-06-01 16:00:00
5:00 AM,64.4,42.8,45,29.65,-9999.0,North,15.0,-,N/A,,Clear,350,2013-06-01 17:00:00
6:00 AM,60.8,42.8,52,29.65,-9999.0,North,11.5,-,N/A,,Clear,10,2013-06-01 18:00:00
7:00 AM,60.8,42.8,52,29.65,-9999.0,NE,11.5,-,N/A,,Clear,40,2013-06-01 19:00:00
8:00 AM,59.0,42.8,55,29.62,-9999.0,NE,18.4,-,N/A,,Clear,50,2013-06-01 20:00:00
9:00 AM,60.8,42.8,52,29.62,-9999.0,NNE,17.3,-,N/A,,Clear,30,2013-06-01 21:00:00
10:00 AM,60.8,42.8,52,29.62,-9999.0,NNE,16.1,-,N/A,,Clear,20,2013-06-01 22:00:00
11:00 AM,64.4,39.2,40,29.59,-9999.0,North,18.4,-,N/A,,Clear,10,2013-06-01 23:00:00
12:00 PM,64.4,41.0,42,29.56,-9999.0,NE,24.2,-,N/A,,Clear,50,2013-06-02 00:00:00
1:00 PM,66.2,41.0,40,29.50,-9999.0,NE,23.0,-,N/A,,Clear,40,2013-06-02 01:00:00
2:00 PM,66.2,42.8,43,29.50,-9999.0,NE,19.6,-,N/A,,Clear,50,2013-06-02 02:00:00
3:00 PM,64.4,41.0,42,29.47,-9999.0,NE,19.6,-,N/A,,Clear,50,2013-06-02 03:00:00
4:00 PM,66.2,39.2,37,29.47,-9999.0,NE,17.3,-,N/A,,Clear,40,2013-06-02 04:00:00
5:00 PM,66.2,37.4,35,29.47,-9999.0,NNW,15.0,29.9,N/A,,Clear,330,2013-06-02 05:00:00
6:00 PM,60.8,42.8,52,29.50,-9999.0,NE,10.4,-,N/A,,Clear,40,2013-06-02 06:00:00
7:00 PM,59.0,41.0,51,29.50,-9999.0,NE,11.5,-,N/A,,Clear,50,2013-06-02 07:00:00
8:00 PM,60.8,41.0,48,29.50,-9999.0,NE,11.5,-,N/A,,Clear,50,2013-06-02 08:00:00
9:00 PM,60.8,39.2,45,29.50,-9999.0,East,13.8,-,N/A,,Clear,80,2013-06-02 09:00:00
10:00 PM,59.0,39.2,48,29.50,-9999.0,ENE,13.8,-,N/A,,Clear,60,2013-06-02 10:00:00
11:00 PM,62.6,39.2,42,29.50,-9999.0,North,12.7,-,N/A,,Clear,10,2013-06-02 11:00:00